EHI
0 0 0 0 1 3 3 3 3 3 3 4 4 3 1 0 0 0 1 2 2 2 3 5 6 5 4 4 4 4 2 1 0 0 0 0 0 0 0 0 0 0 0
0 1 1 1 2 3 3 3 3 3 3 3 4 3 1 1 1 0 0 1 1 2 3 4 5 6 6 5 4 4 3 2 1 0 0 0 0 0 0 0 0 0 0
1 2 2 3 3 3 3 3 3 3 3 3 3 3 3 2 2 1 0 0 1 2 2 3 4 5 6 5 4 3 3 3 2 1 0 0 0 0 0 0 0 0 0
3 3 3 3 3 3 3 3 3 3 3 3 3 3 3 3 2 1 1 1 2 2 2 1 2 4 4 4 4 2 2 3 3 2 0 0 0 0 0 0 0 0 0
3 3 3 3 3 3 3 3 3 3 3 3 2 3 3 2 1 0 0 1 2 3 2 1 1 2 3 3 3 2 1 2 3 2 0 0 0 0 0 0 0 0 0
3 3 4 3 3 3 3 3 3 3 3 1 1 1 2 2 1 1 0 0 1 3 2 1 0 1 1 2 3 3 2 3 3 3 1 0 0 0 0 0 0 0 0
3 3 4 4 3 3 3 3 3 3 3 1 1 1 2 2 2 1 0 0 1 2 2 1 0 0 0 1 2 3 4 5 5 4 3 1 1 1 0 0 0 0 0
2 3 4 4 4 3 3 3 3 3 3 3 2 2 3 3 2 1 0 0 1 2 2 1 0 0 0 0 1 2 4 5 5 4 3 3 2 2 1 1 1 1 0
1 2 4 4 4 4 3 3 4 4 3 3 3 3 3 3 3 2 1 0 0 1 1 0 0 0 0 0 0 1 1 3 3 3 3 3 3 3 3 2 2 2 1
0 1 2 3 4 4 4 5 5 5 4 4 3 3 3 3 3 3 2 1 0 0 0 0 0 0 0 0 0 0 0 1 1 2 2 2 3 3 3 3 3 3 3
1 1 1 3 5 6 6 7 8 7 7 6 5 5 4 4 4 4 4 3 1 0 0 0 0 0 0 0 0 0 0 0 0 1 1 1 2 2 2 3 3 3 2
3 3 2 4 6 6 7 8 9 10 10 9 8 7 6 6 6 6 6 5 3 1 1 1 0 0 0 0 0 0 0 0 0 0 0 1 2 1 1 1 2 1 1
5 4 4 5 6 6 7 8 10 11 11 10 10 9 8 7 8 8 7 6 4 3 2 2 1 0 0 0 0 0 0 0 0 0 0 1 1 1 0 0 0 0 0
3 3 3 4 5 6 7 8 9 10 11 11 10 10 9 9 9 9 8 6 4 3 3 3 1 0 0 0 0 0 0 0 0 0 0 0 0 0 0 0 0 0 0
1 1 1 1 2 4 7 9 9 9 10 11 11 10 10 9 9 8 7 6 5 4 3 3 2 1 0 1 0 0 0 0 0 0 0 0 0 0 0 0 0 0 0
1 0 0 0 0 2 4 6 7 8 9 10 10 9 8 8 7 6 6 5 5 4 4 3 2 1 0 0 0 0 0 0 0 0 0 0 0 0 0 0 0 0 0
2 1 0 0 1 1 2 3 5 6 7 8 7 6 5 5 4 4 4 4 4 4 3 3 2 1 0 0 1 1 1 0 0 0 0 0 0 0 0 0 0 0 0
2 1 1 2 2 3 2 3 5 6 6 5 4 3 3 3 3 2 3 3 3 3 3 3 3 1 0 0 1 1 1 0 0 0 0 0 0 0 0 0 0 0 0
3 3 4 4 4 4 3 4 5 5 4 2 1 1 1 2 1 1 1 3 3 2 2 3 3 2 1 0 0 0 0 0 0 0 0 0 0 0 0 0 0 0 0
5 5 6 6 5 4 3 4 4 3 2 1 0 0 0 0 0 0 1 2 2 1 1 1 2 2 1 0 0 0 0 0 0 0 0 0 0 0 0 0 0 0 0
6 6 6 6 6 4 3 3 3 1 1 1 0 0 0 0 0 0 0 1 1 0 0 0 1 1 1 0 0 0 0 0 0 0 0 0 0 0 0 0 0 0 0
6 6 6 6 5 3 2 2 2 1 0 0 0 0 0 0 0 0 0 0 0 0 0 0 0 0 1 1 1 1 0 0 0 0 0 0 0 0 0 0 0 0 0
8 7 6 5 4 3 1 0 0 0 0 0 0 0 0 0 0 0 0 0 0 0 0 0 0 0 0 1 2 2 1 0 0 0 0 0 0 0 0 0 0 0 0
9 7 6 5 5 3 1 0 0 0 0 0 0 0 0 0 0 0 0 0 0 0 0 0 0 0 0 0 1 2 1 0 0 0 0 0 0 0 1 1 0 0 0
8 7 6 5 4 3 1 0 0 0 0 0 0 0 0 0 0 0 0 0 0 0 0 0 0 0 0 0 0 1 1 0 0 0 0 1 1 1 2 2 1 1 0
7 7 6 5 4 2 1 0 0 0 0 0 0 0 0 0 0 0 0 0 0 0 0 0 0 0 0 0 0 0 0 0 0 0 1 2 2 2 3 3 2 2 1
Wind_Speed
2 2 2 2 2 3 3 3 3 3 3 3 2 2 2 2 2 1 1 2 2 2 2 2 3 2 2 2 3 3 4 5 5 5 6 6 7 7 7 8 7 7 7
3 2 2 2 2 3 3 3 4 3 3 3 3 3 2 2 2 2 1 1 2 2 2 2 2 2 2 1 2 2 3 3 4 5 6 6 6 6 7 8 8 8 7
3 3 3 3 2 3 4 4 4 3 3 3 3 2 2 2 2 2 1 1 1 1 2 2 1 1 1 2 2 2 2 3 3 3 4 5 5 6 6 6 7 8 8
4 3 3 2 3 3 3 3 3 4 3 2 2 1 2 2 2 2 2 1 1 1 1 1 1 0 1 1 2 2 2 2 2 3 3 3 4 5 5 6 6 6 6
4 3 2 2 3 3 3 3 3 3 3 3 2 2 2 2 1 1 2 1 1 1 1 1 1 1 1 2 2 3 3 2 2 3 3 4 4 4 5 5 6 6 6
3 4 3 3 3 3 3 3 4 3 2 3 3 3 2 2 2 1 1 1 1 1 1 1 1 2 2 2 2 3 2 2 2 3 4 4 5 4 4 5 5 6 6
3 3 3 3 4 4 4 4 4 4 2 3 3 2 2 2 2 1 0 0 0 0 0 0 1 1 2 3 3 3 3 2 2 2 3 4 4 4 4 5 6 6 6
3 3 3 3 3 4 4 4 4 3 2 2 2 2 1 2 2 1 1 0 0 0 0 1 1 1 2 2 2 3 3 2 2 2 2 2 3 4 4 5 5 6 6
3 3 3 3 3 4 4 4 4 4 3 1 1 3 3 2 0 1 1 1 0 0 1 1 1 2 2 1 2 2 2 1 1 1 1 1 1 2 3 5 6 5 5
2 3 3 3 3 3 4 4 3 3 3 2 1 1 2 3 2 0 1 1 0 0 1 1 1 1 1 1 1 1 1 1 1 0 0 1 0 1 2 3 4 4 4
1 2 3 3 3 3 4 4 3 3 3 3 3 2 2 1 2 2 1 1 1 1 1 1 1 1 1 1 1 1 1 1 1 1 1 1 1 0 1 2 3 3 4
0 1 2 3 3 3 4 4 4 4 4 3 3 3 3 3 3 3 2 1 1 1 1 1 1 1 1 1 1 1 2 2 2 2 1 1 1 1 1 0 1 2 3
1 2 2 2 3 3 3 3 3 4 4 4 4 3 2 2 2 3 3 2 1 1 1 1 1 1 1 1 1 1 2 2 2 2 2 1 1 1 1 1 0 0 0
2 2 2 2 2 3 3 3 3 3 3 4 4 3 2 2 3 3 3 3 1 1 1 2 1 1 1 1 0 0 0 1 2 2 2 1 1 1 1 1 1 1 2
1 1 2 2 2 2 3 3 2 3 3 3 3 3 2 2 2 2 3 3 3 2 2 2 1 1 1 1 1 0 1 0 1 1 2 2 2 2 2 2 2 2 2
1 1 1 2 1 2 2 2 2 2 3 2 2 3 2 1 2 2 2 2 2 3 2 1 2 1 1 1 1 1 1 0 1 1 1 1 1 2 2 2 2 2 2
3 2 2 2 2 2 2 2 2 2 3 2 2 3 2 2 1 2 2 2 2 2 2 2 1 1 1 1 1 1 1 1 1 1 1 1 1 2 2 2 2 2 2
3 3 3 2 2 2 2 3 3 2 3 3 2 3 2 2 2 1 1 2 2 2 3 2 1 1 2 2 2 2 1 1 1 1 1 2 2 2 2 2 2 1 1
2 2 2 2 2 2 2 2 3 2 2 2 3 3 3 3 2 1 2 2 1 1 2 2 2 1 1 1 1 1 1 1 1 1 2 2 2 2 2 2 2 1 1
3 3 2 2 2 2 3 2 2 2 2 1 2 3 3 3 3 3 2 2 2 1 1 2 1 1 1 1 1 1 1 1 2 1 1 1 1 1 1 2 1 1 1
3 3 3 3 2 2 3 3 3 2 2 2 1 2 2 3 4 3 2 3 3 2 2 2 2 1 1 2 2 2 2 2 2 1 1 1 1 1 1 2 2 2 1
2 3 3 3 3 2 3 5 4 2 2 2 2 1 1 2 2 2 3 3 4 3 3 3 2 3 3 3 2 2 1 1 2 1 1 1 1 2 2 2 2 2 2
3 3 3 3 3 3 4 5 5 3 3 3 3 2 2 1 2 1 1 2 2 2 4 3 4 4 4 4 3 3 3 3 2 1 2 2 1 2 2 2 3 3 3
4 3 3 3 3 3 4 4 4 3 2 2 2 3 2 2 2 2 2 1 1 1 2 3 3 4 4 3 4 4 3 2 1 1 2 2 1 2 2 2 3 4 4
4 3 3 3 3 3 4 5 4 2 2 2 2 2 3 3 3 4 3 2 1 2 2 2 3 3 3 4 3 2 2 2 2 2 2 2 1 1 1 2 2 3 4
4 4 3 3 3 3 4 5 5 3 2 2 1 2 2 3 3 4 3 3 3 3 2 1 1 2 2 2 4 4 4 3 2 2 3 2 2 1 1 1 1 2 2
Wind_Direction
138 139 136 122 122 122 129 120 111 104 99 94 97 99 90 88 102 104 87 119 116 123 131 144 163 176 183 187 193 205 209 202 198 199 201 205 205 199 198 198 197 197 197
138 135 130 123 126 133 134 126 124 114 101 96 94 93 96 94 103 115 96 79 111 121 133 145 155 173 184 192 203 216 223 220 211 209 209 206 205 201 202 204 205 202 200
138 139 133 133 136 131 127 121 118 108 107 104 98 99 99 100 106 108 102 74 49 98 134 135 150 177 185 202 210 226 223 222 216 206 208 210 211 209 207 208 208 205 203
136 132 135 137 132 127 126 128 126 118 116 113 100 84 85 90 100 111 110 106 92 72 77 99 130 171 210 222 226 228 215 209 203 195 194 202 212 213 212 214 207 203 200
139 137 137 133 132 129 130 138 121 126 129 126 110 81 68 70 71 96 102 101 98 81 50 15 347 337 285 258 249 240 232 212 203 203 205 206 211 214 214 213 211 208 204
145 141 137 142 141 134 133 133 126 121 126 119 99 78 66 69 71 76 109 107 111 112 62 3 338 324 324 309 277 264 252 226 207 207 211 213 216 215 209 212 213 214 210
143 143 149 150 147 149 153 146 134 123 120 122 102 72 42 53 65 53 56 83 83 216 118 325 316 308 313 308 295 275 266 258 222 217 220 217 217 216 215 214 217 220 217
154 153 156 159 154 148 148 149 146 137 152 149 131 117 54 20 24 29 39 130 281 263 248 263 271 276 291 296 313 287 265 259 235 230 221 225 227 222 221 220 221 224 225
155 150 156 159 156 156 163 168 168 163 169 169 153 150 156 194 326 5 23 21 12 292 264 281 278 279 274 276 279 291 265 261 242 243 216 209 222 226 226 219 218 222 227
144 147 158 164 159 159 166 180 178 168 157 177 171 173 167 159 164 201 341 7 4 297 283 284 292 285 279 267 264 271 211 228 193 225 290 284 267 213 210 220 223 222 221
136 153 165 164 166 170 177 182 173 167 172 183 177 164 153 153 164 170 230 300 340 311 284 282 292 294 285 273 245 211 162 116 112 104 67 31 18 51 212 230 237 233 232
144 172 172 173 178 180 183 190 182 178 191 190 185 179 172 171 178 174 191 229 273 300 312 292 284 287 283 284 252 169 150 125 125 114 90 73 68 65 40 19 250 257 254
215 214 192 187 189 190 187 185 181 189 194 193 196 196 193 194 168 160 160 181 226 285 307 289 265 267 276 311 291 113 122 122 120 111 91 72 66 69 46 55 55 342 306
223 212 198 196 200 192 186 177 184 197 187 195 201 191 187 193 178 172 168 165 176 263 266 261 281 253 256 254 332 107 95 97 115 100 97 95 96 94 85 84 69 60 55
209 194 194 192 195 186 180 173 183 195 181 190 190 188 188 190 178 180 174 175 171 202 243 235 239 252 243 226 242 229 241 194 141 123 108 101 101 103 101 89 72 62 62
188 175 178 180 185 181 176 170 171 175 168 179 174 167 170 171 168 173 177 188 188 189 223 225 231 253 246 227 181 229 238 245 187 171 177 154 125 122 113 96 84 74 74
183 183 187 177 173 170 166 162 170 166 162 161 158 158 167 162 167 172 175 178 184 186 213 251 234 240 219 232 266 254 240 240 226 200 215 191 162 151 131 114 98 86 83
185 182 172 162 167 163 163 165 172 167 168 169 173 161 167 162 160 168 169 179 193 198 195 226 244 229 226 224 232 240 247 239 241 228 210 186 179 172 160 141 122 111 100
170 161 152 159 168 166 163 163 162 169 174 178 177 176 181 167 174 178 180 185 198 189 188 199 233 238 234 214 226 256 251 268 265 242 206 192 181 170 172 170 165 167 174
168 164 158 169 178 170 167 160 154 156 160 177 181 180 183 182 188 185 189 191 182 169 175 192 219 231 233 217 209 231 253 264 274 277 247 198 166 151 169 176 185 186 201
173 161 159 168 171 173 177 162 159 163 165 172 181 190 198 193 191 198 197 189 178 180 184 201 218 223 224 215 225 224 244 270 264 229 224 227 214 242 232 220 209 202 202
165 162 173 175 178 196 182 177 169 168 179 190 201 215 214 199 197 199 189 187 186 189 202 213 225 232 237 229 219 220 229 246 260 198 205 258 221 243 249 237 223 212 206
170 172 180 174 187 202 191 188 182 178 191 208 212 212 211 198 180 173 161 159 189 199 199 203 220 232 232 219 207 216 216 233 251 226 198 249 235 253 254 236 218 218 211
182 185 192 189 190 209 195 186 178 172 189 210 215 214 209 224 207 173 168 182 260 255 225 212 228 241 239 228 211 211 213 224 256 231 201 234 238 256 269 260 225 214 210
188 187 188 189 193 211 193 182 165 157 177 220 235 225 217 223 212 175 170 197 256 282 272 228 239 249 246 230 199 174 181 194 255 254 194 211 227 258 266 256 236 212 207
191 186 185 198 200 205 200 189 175 176 193 221 249 255 235 224 217 188 186 195 224 255 280 312 312 294 262 222 195 197 196 197 217 236 192 193 209 203 242 242 247 232 216